GFSCGP_925_temp_207.txt.gz
Temp
29 27 26 28 27 29 29 29 28 29 31 30 28 28 25 25 25 24 25 24 24 24 25 25 25 26 25 24 25 25 25 25 25 26 25 25 25 25 25 25 25 25 25 25
27 25 27 28 28 29 28 28 28 29 30 29 28 27 28 26 25 25 25 25 25 25 24 24 25 24 23 23 25 25 25 25 25 26 25 25 25 25 26 26 25 25 26 25
27 28 28 29 29 29 27 27 27 29 30 29 28 27 27 26 27 26 26 26 26 25 25 24 23 23 23 24 25 25 25 25 25 26 25 25 25 26 25 26 26 26 26 25
25 28 28 28 28 28 26 28 30 29 29 29 29 27 27 26 27 27 26 26 26 26 26 25 24 24 23 24 25 25 26 26 26 26 26 25 26 26 26 26 26 26 26 26
25 26 27 28 29 28 28 30 29 30 28 29 30 28 28 26 26 26 27 27 26 26 26 26 24 24 24 24 24 25 26 26 26 26 26 25 25 26 26 26 26 27 26 26
26 28 27 28 29 29 30 30 29 28 25 25 31 27 30 25 26 27 28 27 27 27 26 26 26 25 24 25 24 24 25 25 26 25 26 25 25 25 26 26 26 27 27 26
25 26 27 30 29 29 29 25 24 25 24 27 29 27 30 31 30 29 27 28 28 27 27 26 26 25 25 25 24 24 24 24 25 25 26 25 25 25 26 26 26 27 27 26
22 25 26 28 27 26 25 24 22 24 24 27 26 27 30 29 28 29 29 29 28 27 27 27 27 26 25 25 24 24 23 23 25 25 25 25 25 25 26 26 26 26 26 26
20 22 26 28 28 28 27 25 25 25 25 25 26 28 30 29 29 28 29 29 28 27 27 27 27 26 25 25 25 24 23 23 24 25 25 25 25 25 25 26 26 26 26 25
22 23 24 28 28 27 27 26 25 21 25 25 25 27 28 30 29 28 28 28 29 28 28 27 27 26 26 25 25 24 24 24 24 25 25 25 25 25 25 25 26 25 25 25
20 20 24 27 26 27 26 25 25 23 22 26 24 25 26 29 28 28 28 29 29 28 28 28 27 26 26 25 25 24 24 23 23 24 24 25 25 25 25 25 25 26 25 25
20 16 20 24 26 26 25 25 25 25 25 22 23 28 29 28 28 28 29 29 29 29 29 28 28 27 26 26 25 24 24 23 23 24 24 25 25 25 25 25 25 26 26 26
18 17 17 24 24 24 27 26 25 21 21 23 25 25 28 26 26 27 28 28 27 28 29 28 28 27 27 26 25 25 24 24 24 24 24 24 24 25 25 26 26 25 26 26
17 15 17 17 19 20 23 25 27 24 22 24 23 27 28 29 28 27 26 27 28 28 29 29 27 27 27 27 25 25 24 24 23 23 23 23 24 25 25 26 26 26 26 25
15 17 17 17 18 20 22 24 26 25 25 25 27 26 28 28 27 27 25 27 27 26 29 29 27 27 27 26 26 25 24 24 23 23 23 23 24 25 25 25 26 26 25 25
13 16 15 17 21 22 23 25 25 26 28 25 25 25 26 27 27 27 26 26 26 26 29 29 28 27 27 26 26 25 24 24 23 23 23 23 23 24 25 25 25 25 25 25
14 14 14 17 18 20 24 27 26 27 25 24 25 26 23 26 26 26 25 25 27 27 28 29 28 27 27 27 26 26 24 24 23 23 23 23 23 24 24 25 25 24 25 24
15 14 12 14 16 22 24 24 24 26 25 24 24 24 23 23 28 28 28 27 26 28 29 28 28 28 27 27 27 26 25 24 23 23 23 23 23 23 24 23 24 24 24 24
13 13 14 15 15 19 24 23 23 23 24 24 23 23 23 24 27 26 26 27 26 26 28 28 29 28 27 27 27 26 24 24 23 23 23 23 23 23 23 23 23 24 23 24
11 13 15 15 17 20 22 22 22 23 22 23 23 22 21 24 25 27 27 27 27 26 26 26 27 28 27 27 26 26 25 24 23 24 24 23 24 23 23 24 24 24 23 23
14 14 15 14 16 17 20 19 23 22 21 21 22 21 22 21 21 21 22 28 27 26 26 28 27 27 27 27 26 25 25 24 25 25 24 24 24 24 25 25 24 23 23 23
13 13 13 14 17 18 18 20 19 18 18 20 20 20 20 21 21 21 23 25 24 24 25 27 27 27 27 26 26 25 25 26 25 25 24 24 24 24 24 24 23 23 23 22
12 12 12 13 15 14 15 16 16 16 16 19 19 19 19 20 20 21 21 21 21 23 23 26 27 26 26 26 26 26 26 26 25 25 25 24 24 24 24 23 23 22 22 22
11 12 13 13 14 13 15 16 15 16 16 19 19 18 18 18 19 19 20 20 20 21 22 23 25 23 23 25 26 26 26 26 26 25 24 24 24 23 23 23 23 23 22 22
11 12 11 14 13 13 15 14 14 16 17 19 18 18 18 18 18 19 19 19 20 20 21 22 22 24 24 26 25 26 27 27 25 25 24 24 24 24 23 23 23 23 24 24
11 11 11 12 12 12 13 14 14 15 16 17 18 17 17 18 18 19 18 19 20 20 20 20 21 21 24 26 26 26 27 28 27 25 25 25 24 24 23 24 23 24 24 24

GFSCGP_925_temp_210.txt.gz
Temp
27 26 25 27 27 28 29 29 28 28 30 29 28 27 23 23 23 23 23 23 23 23 24 23 24 25 25 25 25 25 25 24 24 24 24 25 25 26 25 25 25 25 25 25
26 25 26 28 27 28 28 28 28 28 29 28 27 27 25 24 24 24 24 23 23 23 23 22 24 24 24 25 25 25 25 24 24 25 25 25 25 26 25 25 25 25 25 24
25 26 27 28 27 28 27 27 27 29 29 28 27 26 27 24 24 24 25 24 24 24 23 23 23 23 24 24 24 25 25 25 25 25 25 25 25 25 25 25 25 25 25 25
25 27 27 27 27 27 26 27 28 29 27 26 28 26 27 24 24 24 24 24 24 24 24 23 23 22 23 24 24 25 25 25 25 25 25 25 25 25 26 26 26 25 25 25
25 25 26 27 27 27 27 28 28 28 27 27 27 26 25 24 23 24 25 25 25 25 25 24 23 23 23 24 23 24 25 25 25 25 25 25 25 26 26 25 26 26 25 25
25 26 26 26 28 28 28 29 25 22 23 23 26 26 26 26 26 25 26 25 25 25 25 24 24 24 23 23 23 24 25 25 24 25 25 25 25 25 25 25 26 26 26 26
25 26 27 29 27 27 26 24 22 24 22 23 27 25 29 29 28 28 26 26 26 26 26 25 23 23 23 23 23 24 24 24 25 25 25 25 25 25 26 26 26 26 26 26
22 23 25 27 26 25 24 23 21 24 23 25 25 25 29 29 28 28 27 27 27 26 26 26 24 24 24 24 23 23 23 24 25 25 25 25 26 25 25 25 25 25 26 26
20 22 24 26 26 27 25 23 24 24 22 23 24 27 29 29 29 28 26 27 27 26 26 26 25 25 24 24 23 23 23 24 25 25 25 25 26 26 25 25 25 25 25 25
20 23 24 27 26 26 25 24 24 19 24 23 23 24 27 29 29 27 26 26 26 26 26 26 26 25 25 24 24 24 24 24 25 25 25 25 25 26 26 25 25 25 25 25
19 19 23 25 24 23 24 24 21 21 21 23 24 25 25 29 29 27 25 27 27 27 26 26 26 26 25 25 24 24 23 23 23 24 24 25 25 25 25 25 25 25 25 25
17 15 20 22 23 24 23 23 24 24 23 20 22 28 28 29 28 27 26 27 27 27 27 26 26 26 25 25 25 24 24 23 23 24 24 25 25 25 25 25 25 25 25 24
18 15 17 20 22 22 25 24 22 20 20 24 24 24 27 26 27 25 25 25 26 27 27 27 26 25 25 25 25 24 24 23 23 23 23 23 24 25 25 26 25 25 25 25
16 13 16 18 21 19 21 23 23 22 20 22 21 26 27 29 27 28 25 25 25 26 27 26 26 25 25 25 25 24 24 24 23 23 23 23 24 25 26 26 26 25 25 25
14 16 16 16 17 18 19 21 22 23 23 24 26 23 25 26 27 26 25 25 24 25 26 27 26 26 25 25 25 24 24 24 23 23 22 23 24 26 26 25 26 26 26 26
12 15 15 17 19 20 20 21 22 23 25 23 24 24 24 22 22 25 26 24 24 24 26 27 27 26 26 25 25 24 24 23 23 22 22 23 23 24 25 25 26 25 25 25
13 13 14 17 16 17 21 22 24 25 23 23 24 24 22 22 22 23 25 24 26 26 26 26 27 26 26 26 26 24 24 23 23 22 22 22 23 24 25 25 25 25 25 25
13 13 11 14 15 20 22 22 23 23 23 22 21 22 22 22 22 22 23 25 25 26 26 26 27 27 27 26 26 25 24 23 23 22 22 22 22 23 24 24 24 25 24 25
11 11 13 15 14 18 22 20 20 20 22 20 21 22 23 22 21 23 24 24 24 24 24 25 27 27 26 26 26 25 24 23 23 22 22 22 22 23 23 23 23 24 24 23
10 11 14 12 16 18 19 18 18 19 19 19 18 21 22 21 22 23 21 21 22 25 25 25 27 27 26 26 25 25 23 23 22 23 22 22 23 23 23 24 24 24 24 24
11 12 13 13 15 16 16 16 18 19 19 16 18 20 20 21 21 21 21 20 22 24 24 26 27 26 26 26 25 24 23 23 23 23 23 22 23 24 24 24 24 23 23 23
12 12 12 13 15 16 16 17 17 16 16 16 18 19 19 19 20 20 20 20 20 21 22 25 24 25 25 25 25 24 23 24 23 23 23 23 23 23 23 23 23 23 23 22
12 11 11 12 14 14 14 15 15 14 15 16 16 18 18 18 19 20 20 20 21 21 21 23 25 25 25 25 25 24 24 24 24 23 23 23 23 23 23 22 22 22 22 21
11 12 12 12 13 12 13 15 15 14 15 16 17 18 18 18 19 19 19 20 20 20 21 21 23 23 23 24 24 25 24 25 24 23 23 23 23 23 23 23 23 22 21 21
10 11 11 12 13 12 14 13 13 15 15 16 16 17 17 17 18 18 18 18 19 19 20 20 20 20 20 23 24 24 25 25 24 24 23 23 22 23 22 23 22 22 23 23
10 10 11 12 12 11 11 13 14 14 15 15 15 17 17 17 17 17 17 17 18 18 18 18 18 19 19 19 20 22 24 25 24 23 23 23 23 22 22 22 22 23 24 24

GFSCGP_925_temp_216.txt.gz
Temp
33 33 33 35 36 36 36 36 35 36 36 35 36 36 35 33 33 33 32 31 31 31 31 29 29 28 28 27 26 26 25 25 25 25 26 27 27 27 27 27 25 25 25 25
33 33 35 36 36 35 35 35 35 35 35 35 36 36 37 35 34 34 33 32 32 31 31 30 29 28 28 28 27 26 25 24 25 26 27 27 28 28 28 27 26 26 25 25
33 34 35 35 34 34 35 35 36 35 35 36 35 36 36 36 35 35 34 34 33 32 32 31 29 29 28 28 27 26 25 25 25 26 26 25 26 26 27 26 27 26 25 25
33 35 35 34 34 35 34 35 35 35 34 35 36 35 36 36 35 34 34 34 33 33 32 31 30 29 29 28 27 27 26 25 25 25 26 27 28 29 29 28 27 26 25 25
33 34 34 33 34 35 35 36 35 35 34 35 35 35 37 37 35 35 35 34 34 33 33 32 31 29 29 29 28 27 26 25 26 25 26 26 27 28 28 28 26 26 25 25
33 35 35 34 35 35 36 34 34 34 35 34 35 35 36 38 37 38 37 36 35 34 33 33 31 30 29 29 29 28 26 25 25 25 24 25 27 28 28 27 27 28 27 27
31 33 34 34 34 35 34 34 32 32 33 33 36 36 36 37 37 37 38 38 36 35 34 33 32 31 30 29 29 28 27 25 25 25 25 25 25 26 26 26 27 28 28 28
31 30 32 33 34 34 33 34 33 31 33 34 36 34 35 38 38 39 38 39 39 37 36 34 33 31 30 29 29 29 27 26 25 25 25 25 25 26 26 26 28 28 29 28
32 31 34 33 34 34 33 33 35 34 35 34 36 35 37 37 37 38 38 38 38 38 36 34 34 32 30 30 29 29 28 26 26 26 25 25 24 25 27 27 26 27 27 28
31 31 32 32 34 34 34 34 33 33 31 32 34 34 35 36 37 38 37 38 38 36 36 35 34 32 31 30 30 29 28 27 27 26 26 25 25 25 26 26 26 27 27 26
31 31 31 32 31 32 32 32 33 35 34 33 33 34 37 36 37 37 36 38 37 36 35 34 34 33 31 31 30 29 29 28 27 27 26 26 25 25 25 26 25 26 26 25
28 31 30 30 33 33 34 33 33 33 32 34 34 35 38 37 37 36 35 37 36 36 35 34 34 33 32 31 31 30 29 29 28 27 26 26 25 26 26 25 26 25 25 25
27 29 29 30 31 31 31 33 34 34 34 33 32 34 38 38 37 37 35 36 36 35 35 34 33 33 32 31 31 30 29 29 28 27 26 26 26 26 26 26 26 26 26 25
23 28 29 29 30 31 30 31 32 33 32 32 33 34 36 36 36 36 36 34 34 35 35 34 33 32 31 31 30 30 30 29 28 27 27 27 27 27 27 26 26 26 25 25
26 27 26 27 27 28 30 31 31 31 32 32 33 34 34 35 35 34 33 34 34 34 34 34 33 32 31 30 30 29 29 29 29 27 27 27 27 26 27 27 26 26 25 25
25 25 25 27 27 28 28 29 29 30 31 32 32 32 35 34 33 32 32 32 32 32 33 34 33 32 31 30 29 29 28 28 28 28 27 27 26 26 26 26 26 25 25 25
24 25 25 27 27 27 27 29 30 30 31 31 31 32 31 30 30 29 30 30 30 31 31 32 33 33 31 30 29 29 28 28 27 27 27 26 26 26 26 26 26 25 25 25
23 23 25 27 26 25 27 27 28 29 25 23 27 27 27 27 28 29 30 27 27 28 29 29 32 32 31 30 29 28 28 27 27 27 27 26 26 26 26 26 25 25 25 25
23 23 24 24 26 28 26 24 24 26 23 20 20 21 22 24 27 31 26 25 25 25 27 28 29 30 31 31 29 29 28 28 27 27 27 27 26 26 26 26 25 25 26 26
22 21 23 24 24 25 24 23 24 23 24 19 19 19 19 21 25 28 23 23 22 22 23 26 28 29 31 31 30 28 28 28 27 27 26 26 26 26 26 26 25 25 25 26
21 21 22 23 24 25 21 22 24 22 21 16 17 19 18 18 19 21 23 21 20 20 21 23 26 29 30 30 29 28 28 28 27 27 27 26 26 25 25 25 25 25 25 26
21 21 22 23 23 22 20 22 20 15 15 14 17 20 19 19 20 21 21 20 19 19 19 21 26 28 29 30 28 28 27 27 27 27 26 26 25 25 26 25 25 25 25 25
19 21 21 21 21 20 20 16 14 14 13 14 15 19 20 19 19 20 20 19 18 18 17 19 24 28 29 28 28 27 27 26 26 26 26 26 25 25 26 25 25 25 25 26
19 19 20 19 21 20 20 19 18 14 14 15 16 17 18 18 19 19 19 17 17 16 16 16 18 22 27 27 27 27 27 26 25 25 25 25 25 25 25 26 26 26 27 27
19 18 19 20 20 19 21 19 19 18 17 15 15 17 17 17 17 18 18 16 16 15 14 14 14 15 16 18 20 22 26 26 26 25 26 25 26 25 26 25 27 28 28 29
19 18 19 19 17 16 18 18 18 18 17 16 15 16 17 16 16 16 16 14 14 14 14 13 13 13 14 14 15 16 18 20 25 26 27 27 27 28 27 27 26 26 27 27

GFSCGP_925_temp_219.txt.gz
Temp
34 34 35 36 38 39 38 37 34 28 27 34 36 32 37 37 37 36 35 34 33 33 34 32 31 31 30 29 28 27 27 26 26 27 28 29 29 29 30 29 27 26 27 27
35 34 36 38 38 38 37 37 37 38 36 38 37 38 38 37 37 37 36 35 34 34 34 33 31 31 30 29 28 27 27 26 26 27 28 30 30 30 29 29 27 27 27 27
34 36 37 37 37 37 37 37 38 38 38 38 38 37 38 38 37 38 38 37 36 35 34 33 32 31 31 30 28 27 27 26 26 28 28 28 29 29 29 28 27 27 26 27
35 37 37 36 36 37 36 38 38 37 37 37 38 37 37 39 38 37 38 37 36 35 35 34 32 31 31 30 29 28 27 26 26 27 28 28 29 29 30 29 29 27 27 27
34 36 36 36 36 37 36 38 38 37 37 37 37 37 38 39 37 38 38 38 38 36 35 35 33 31 31 31 29 28 27 26 26 26 27 27 28 30 30 30 28 28 26 27
35 37 37 37 38 37 38 37 36 37 37 35 37 38 38 39 39 39 39 38 38 37 37 36 34 32 31 31 30 29 27 26 26 26 26 27 28 29 30 30 28 29 28 27
34 35 37 37 36 37 37 36 34 34 35 35 38 38 38 39 40 40 39 39 39 38 37 36 35 33 31 31 31 30 28 26 26 26 26 26 27 27 29 28 29 30 30 30
32 33 35 37 36 36 36 36 35 32 34 36 38 37 38 40 40 40 40 40 40 40 39 38 36 34 32 31 31 31 29 27 26 26 26 26 26 27 28 28 30 30 31 30
33 33 36 36 37 37 36 35 37 36 37 37 38 39 40 39 39 40 40 40 40 40 41 39 37 35 33 32 31 31 30 27 27 27 26 26 25 26 28 28 28 29 29 30
33 33 36 36 36 36 36 37 35 35 33 34 37 37 38 38 38 39 39 39 40 40 39 40 38 36 34 33 32 31 31 28 27 27 27 26 26 25 26 28 27 29 29 28
32 33 34 36 35 34 35 35 36 37 36 35 35 37 40 39 39 39 39 38 38 39 38 39 39 36 34 33 32 32 31 30 28 28 27 27 26 26 26 27 27 27 28 27
32 33 32 34 36 36 36 35 36 35 33 36 36 37 41 40 40 38 38 38 38 38 39 37 38 37 35 34 33 32 31 31 29 28 28 27 27 26 26 26 27 27 27 27
32 31 31 33 34 35 34 36 36 36 36 35 35 36 40 39 39 38 38 37 37 37 38 37 37 37 35 34 33 33 32 31 30 28 28 28 27 27 27 27 26 27 26 27
25 31 31 32 33 34 32 34 35 35 35 35 36 36 38 39 39 38 37 36 35 36 36 37 36 35 35 34 33 33 32 31 31 29 28 28 28 28 27 27 27 26 26 26
29 29 31 33 32 33 34 33 34 34 35 35 36 36 37 38 37 37 36 35 35 35 35 35 36 35 34 34 33 32 32 32 31 30 29 28 28 28 28 28 27 27 26 26
29 28 29 30 31 31 32 33 34 34 34 34 35 35 38 38 36 35 34 34 33 33 33 34 35 35 34 33 33 32 31 31 31 30 29 29 28 28 28 28 28 27 27 26
27 28 28 28 31 31 30 31 32 33 34 34 33 34 35 35 33 33 32 32 31 31 31 30 32 33 35 33 32 32 31 31 30 30 29 29 28 27 27 27 27 27 26 26
26 26 28 29 29 27 31 33 33 32 28 28 29 27 27 27 29 31 29 28 28 28 28 28 30 31 31 34 33 31 31 30 30 30 29 28 28 28 27 27 27 27 27 26
27 27 27 27 28 30 29 28 30 30 23 24 24 24 25 26 27 29 26 27 26 25 25 25 26 29 30 31 33 32 30 31 29 29 29 29 28 28 27 27 27 27 27 27
26 25 26 27 27 27 25 27 28 28 22 20 20 21 22 24 28 28 24 27 24 23 22 22 23 26 28 30 32 32 31 30 30 29 29 28 28 28 27 27 27 27 27 27
24 24 24 26 26 27 25 26 26 25 21 19 18 18 21 21 21 22 23 25 23 21 19 19 21 25 28 30 30 31 31 30 29 30 29 28 28 28 27 27 27 27 27 28
23 23 25 25 26 24 23 25 23 17 18 18 19 19 19 20 21 21 22 22 21 20 18 17 19 24 26 29 30 31 30 30 29 29 29 28 28 27 28 27 27 27 27 27
22 23 22 24 22 23 22 20 18 18 16 18 19 19 19 20 20 20 20 20 19 19 17 15 17 21 21 21 29 30 29 29 28 28 28 28 27 27 27 27 26 27 26 27
22 23 22 23 23 22 23 21 20 19 19 19 18 18 19 19 18 18 19 19 17 17 16 14 14 16 17 18 20 21 27 28 27 27 27 27 27 27 26 27 27 27 28 28
21 20 22 22 22 22 22 20 21 21 21 21 20 19 19 20 17 16 17 17 16 15 14 14 13 14 14 14 15 17 19 20 26 27 27 27 27 27 26 26 28 28 28 29
22 21 21 20 20 20 21 20 20 20 21 21 20 19 18 20 18 16 15 14 14 15 14 13 13 13 13 13 13 14 15 17 20 23 27 28 28 28 27 28 27 27 28 28

GFSCGP_925_temp_222.txt.gz
Temp
35 34 33 35 37 38 38 36 34 32 30 27 24 24 28 28 35 34 34 34 34 34 34 33 32 32 30 29 28 28 28 27 27 27 27 28 28 30 28 27 27 27 27 27
34 33 35 37 38 38 38 38 35 33 34 30 24 26 27 28 32 36 35 34 34 34 34 33 32 32 30 29 28 27 27 27 27 27 28 29 29 30 29 27 27 27 27 27
33 35 36 36 37 37 38 38 34 33 35 33 29 27 28 33 35 37 37 36 35 35 34 33 32 32 31 29 28 27 27 26 27 28 28 29 29 29 28 27 27 27 27 27
34 36 36 36 36 37 37 39 39 37 34 35 38 35 32 35 37 38 38 37 36 35 35 33 32 32 31 30 28 27 27 26 27 27 28 28 29 29 29 28 27 27 27 27
34 35 35 35 36 38 37 39 38 38 37 38 37 37 35 37 35 37 38 38 37 36 35 34 33 32 32 30 29 28 27 26 26 26 28 28 29 29 29 28 28 27 27 27
34 37 36 37 38 38 39 38 38 37 37 35 37 37 34 38 36 38 38 38 38 36 36 35 34 32 32 31 29 28 26 26 26 26 27 28 28 28 30 28 28 27 27 27
33 34 36 37 36 38 37 37 34 33 34 35 38 37 37 37 38 40 38 39 38 37 37 36 34 33 32 32 30 29 26 26 26 26 26 26 28 28 27 28 28 28 28 27
31 32 35 37 36 36 37 37 35 32 33 35 38 36 38 38 39 40 40 39 39 39 38 37 36 34 32 32 31 30 27 26 26 26 26 26 27 27 27 29 29 30 30 30
32 32 36 36 37 37 36 36 37 36 36 36 37 39 40 39 39 40 40 38 36 38 39 38 37 34 33 32 31 30 27 26 26 26 26 26 26 26 27 28 29 28 30 29
33 32 35 36 37 37 37 37 35 36 33 32 36 34 34 35 38 40 40 40 39 40 40 40 38 35 34 32 32 31 28 27 26 26 26 26 25 26 27 28 28 28 29 29
33 33 34 36 35 35 36 36 36 37 37 34 34 36 37 34 34 39 40 39 39 39 39 39 39 36 34 33 32 32 31 27 27 27 27 26 26 25 26 26 27 28 28 29
33 33 32 33 36 37 37 36 36 34 32 36 36 37 37 36 37 40 39 39 38 38 38 38 38 37 35 34 33 32 31 29 27 27 27 26 26 25 25 26 27 27 28 27
31 31 30 31 34 37 36 36 36 36 35 33 35 36 34 35 35 37 38 37 36 37 36 37 37 38 36 35 34 33 32 31 28 27 27 27 27 26 26 26 26 27 27 27
27 29 30 31 33 36 35 35 36 36 35 34 36 36 37 36 37 37 37 36 36 35 35 34 35 36 36 34 34 33 32 31 30 28 28 28 27 26 26 26 26 26 27 26
29 29 31 32 33 34 35 35 35 34 35 35 36 37 38 35 33 34 36 35 34 34 33 32 32 33 35 34 33 33 32 32 31 29 28 28 27 27 27 26 27 26 26 26
30 28 30 30 33 33 32 35 35 35 36 36 36 36 32 32 34 34 34 34 33 32 30 30 29 30 31 34 33 33 32 32 31 30 29 28 28 27 27 27 27 27 26 26
29 29 28 28 31 32 31 33 34 35 36 35 35 29 29 29 30 30 30 30 29 29 29 28 27 27 28 31 32 33 32 32 31 30 29 28 28 27 27 27 27 27 27 26
27 27 28 28 30 28 32 34 34 32 27 29 28 27 27 28 29 28 28 28 27 26 26 26 26 25 26 27 29 31 32 31 31 30 30 29 28 27 27 27 27 27 26 26
28 27 27 27 29 30 32 32 30 31 23 24 24 25 26 27 28 24 25 26 25 24 24 23 23 23 24 25 27 28 31 32 31 30 30 30 28 28 27 27 27 27 27 26
27 27 26 27 27 27 25 23 27 26 21 22 22 21 22 25 28 23 23 24 24 23 21 21 20 22 23 25 26 28 30 30 31 30 30 29 29 28 28 27 27 26 26 27
24 25 25 26 27 23 24 25 24 25 20 20 21 20 21 21 21 21 21 22 21 21 21 19 19 20 22 23 23 23 29 30 30 30 30 29 29 29 28 27 27 27 26 27
24 24 25 26 26 23 23 24 22 19 20 21 21 20 21 21 21 21 20 20 20 20 20 18 18 19 19 19 19 22 27 29 30 30 29 29 29 28 28 27 27 27 26 26
22 24 23 23 21 21 21 20 20 20 20 20 21 21 20 21 21 21 20 19 20 19 18 16 16 17 16 16 16 18 20 20 23 29 28 28 28 28 28 28 27 26 26 26
23 23 23 22 20 22 22 22 22 22 21 22 22 21 19 19 21 19 18 17 17 16 16 15 14 14 14 14 14 15 16 17 20 25 28 28 28 28 27 27 27 26 27 27
22 23 22 22 20 21 21 22 22 22 22 22 22 22 21 19 21 18 17 17 15 15 15 14 13 13 13 13 13 14 14 16 18 21 26 27 27 27 27 26 27 27 27 27
18 17 18 17 20 20 19 20 22 21 22 22 23 22 21 21 20 19 17 16 15 15 15 14 13 13 13 13 13 13 14 16 17 19 22 25 26 27 26 26 26 27 27 27

GFSCGP_925_temp_225.txt.gz
Temp
31 30 28 30 31 33 34 33 30 28 27 25 25 24 27 27 28 27 29 30 30 31 31 30 31 30 28 27 28 27 27 27 26 27 26 28 28 27 27 27 27 27 27 27
30 30 32 33 34 34 34 34 32 29 28 27 25 26 27 28 27 26 24 29 31 31 30 30 30 28 27 27 28 27 27 27 27 27 27 28 29 28 27 27 27 27 27 27
29 31 34 34 33 33 33 33 31 32 28 27 26 26 27 28 28 25 25 29 31 31 30 30 29 28 27 27 28 27 27 27 27 27 27 27 28 27 27 27 27 27 27 27
30 32 33 33 33 33 30 35 35 34 31 29 28 26 27 28 26 25 25 26 32 32 31 30 29 28 27 26 28 27 27 27 27 27 27 27 26 27 28 28 27 27 27 27
30 31 31 32 33 34 33 35 35 33 31 31 29 29 29 29 27 27 26 27 32 32 31 30 29 29 28 27 26 27 26 27 27 27 27 28 28 28 28 27 27 27 27 27
30 32 32 32 35 35 36 34 34 34 31 30 31 29 31 29 30 31 29 32 33 33 32 31 31 30 29 27 26 27 26 26 27 27 27 27 28 28 27 27 27 27 27 27
29 30 32 34 32 34 34 31 29 29 28 27 30 31 29 33 33 31 29 34 34 33 32 31 30 30 29 27 27 26 26 25 26 27 26 26 28 28 27 27 27 27 27 27
26 27 30 33 32 32 31 31 29 28 28 28 31 31 30 34 33 30 31 34 35 34 33 32 31 30 30 28 27 26 26 25 26 26 26 26 27 27 27 27 28 28 28 27
26 27 32 33 34 33 32 31 32 30 29 29 31 34 32 34 30 30 30 27 34 34 34 32 32 31 30 28 27 27 25 25 26 26 26 26 26 27 27 27 28 28 27 28
27 26 29 33 33 33 32 33 31 30 28 28 31 31 31 32 33 31 29 32 34 33 34 34 32 31 30 30 28 27 26 25 25 26 26 26 26 26 27 27 28 29 28 28
28 26 28 30 31 31 32 31 32 30 28 27 28 28 30 31 35 33 31 33 31 32 32 34 33 32 31 30 29 28 25 25 25 25 26 25 26 26 27 27 27 28 28 27
29 27 25 28 31 33 33 31 30 29 28 28 27 30 34 35 35 33 34 34 31 31 31 32 34 32 31 30 30 29 26 25 25 25 25 25 26 26 26 27 27 27 28 27
24 24 24 26 27 31 31 33 31 31 31 28 28 29 32 32 32 32 32 32 29 30 29 29 30 32 31 31 30 30 26 26 25 25 25 25 25 25 26 27 27 26 27 27
25 25 25 23 26 29 31 31 33 30 29 29 29 31 32 32 33 33 32 31 29 27 27 27 27 27 31 30 30 29 28 26 26 25 25 25 25 25 25 25 26 26 26 27
25 24 25 26 28 29 30 31 33 31 30 29 30 29 28 30 32 31 31 29 27 27 26 25 25 25 27 29 29 30 29 27 26 26 25 26 26 25 25 25 25 26 26 26
25 23 26 25 28 29 30 31 31 33 32 31 31 26 28 29 28 27 27 27 26 25 25 24 24 24 24 25 25 29 30 29 27 26 26 26 26 26 25 25 25 25 26 26
24 24 23 23 26 28 27 30 30 31 27 28 26 25 27 24 24 23 24 23 23 23 23 22 22 22 22 23 24 25 28 30 28 26 26 26 26 26 26 26 25 25 26 26
22 24 23 22 24 25 28 26 26 23 24 25 24 23 23 22 22 22 22 22 22 21 21 20 20 20 21 22 23 24 25 27 28 27 26 26 26 26 26 25 25 25 25 25
23 22 22 22 22 28 25 23 24 23 20 22 20 21 22 22 21 20 22 22 21 20 20 19 19 19 20 21 21 21 22 25 27 28 28 27 26 26 26 25 25 25 25 25
23 22 21 21 22 24 21 21 23 23 19 21 20 21 20 21 19 19 20 20 20 20 19 18 18 18 19 18 18 19 20 22 25 28 29 29 28 26 26 26 25 25 25 26
21 21 20 20 21 21 21 23 23 21 19 20 20 20 20 19 18 20 20 20 20 19 18 17 17 16 17 16 16 17 18 19 19 23 27 29 29 28 27 26 26 25 25 25
20 20 20 20 21 20 19 21 19 18 19 19 19 18 19 20 20 19 18 18 18 17 16 16 15 15 15 15 14 15 16 16 17 20 23 28 29 29 27 26 26 26 25 25
19 18 18 17 17 18 19 18 18 18 18 19 19 19 19 19 18 18 17 16 16 16 15 15 15 14 14 14 13 14 14 15 16 18 20 26 29 28 28 27 26 26 26 25
13 17 16 16 16 15 17 19 20 20 20 21 21 20 19 19 18 17 17 15 15 15 15 14 14 14 14 14 14 13 14 15 16 17 20 23 27 28 28 28 27 26 26 25
14 15 15 16 15 17 17 19 19 20 20 21 21 20 20 18 17 16 17 16 15 15 15 14 14 14 13 14 14 14 14 15 16 17 19 21 25 27 27 27 27 26 26 26
14 14 13 13 13 14 15 17 19 20 19 19 19 20 20 19 17 17 17 17 15 15 15 14 14 13 13 13 13 14 14 15 15 16 17 18 20 23 24 25 26 26 26 26

GFSCGP_925_temp_231.txt.gz
Temp
28 26 25 27 27 28 29 29 28 28 25 25 24 23 23 23 23 25 24 27 27 26 26 26 25 26 25 26 26 26 26 26 26 26 25 26 26 26 25 26 26 26 26 26
26 25 27 28 29 29 29 29 28 26 25 26 23 24 24 24 24 24 25 26 27 26 25 25 25 24 24 25 26 25 26 26 26 26 26 26 26 26 26 26 26 26 27 26
25 26 28 29 29 29 28 28 28 28 25 26 25 25 25 25 25 25 26 27 28 27 25 26 25 24 24 24 25 26 26 26 26 26 26 26 26 26 26 26 26 26 26 26
25 27 28 28 29 28 27 29 30 26 25 25 26 25 26 25 25 25 26 24 26 27 27 26 25 24 24 24 26 27 26 26 26 26 26 27 26 25 26 26 26 26 26 26
25 26 26 27 28 28 28 31 30 27 25 25 25 24 25 26 26 25 25 25 25 27 27 26 25 25 25 24 25 26 27 26 27 26 26 26 25 26 26 26 26 26 26 26
25 28 27 27 29 29 30 31 29 25 24 24 25 25 26 24 28 30 27 27 26 27 28 27 26 26 25 24 24 25 26 27 26 26 26 26 26 26 26 26 26 26 26 26
26 26 28 29 28 29 28 27 26 24 24 25 24 25 29 29 28 30 30 27 27 26 28 27 26 26 25 25 24 24 25 26 26 26 26 26 26 26 26 27 26 26 26 25
22 24 26 27 27 26 25 25 23 25 24 25 25 25 28 29 30 30 31 29 28 26 28 28 27 26 26 25 24 24 24 25 26 26 26 26 26 26 26 26 27 27 27 26
20 23 25 27 28 26 26 24 25 25 24 24 24 26 29 29 27 29 29 29 29 27 28 29 27 27 26 25 25 24 24 25 26 26 26 26 26 25 26 27 27 27 27 27
22 24 25 27 28 28 26 25 25 22 25 25 25 26 28 29 28 28 29 28 29 29 29 29 28 27 26 25 25 25 25 25 26 26 26 27 26 26 26 27 27 27 27 27
20 21 24 26 25 24 24 25 24 22 22 25 24 25 25 28 27 28 27 25 27 28 29 29 28 27 26 25 25 24 24 24 24 26 26 26 26 26 26 26 27 27 27 26
22 18 21 23 25 25 24 24 23 23 24 21 22 25 28 29 25 25 24 24 24 25 26 26 27 27 25 24 24 24 24 24 24 25 25 25 25 26 25 26 27 27 27 26
22 18 20 21 22 24 26 24 24 21 20 23 24 25 27 25 25 25 24 23 22 24 25 24 24 26 26 24 23 23 24 24 24 24 24 25 25 25 25 25 26 26 26 26
20 16 19 23 22 23 26 26 25 23 20 23 23 27 26 24 24 24 23 22 22 22 22 21 20 23 27 24 22 23 23 24 24 24 24 24 25 25 26 26 26 26 26 26
19 21 21 22 24 25 26 23 25 25 25 25 26 25 25 25 24 23 23 22 21 20 21 20 19 19 21 22 23 22 22 23 23 23 23 24 25 26 25 25 26 26 26 27
14 20 22 23 24 24 22 20 23 21 21 25 23 23 22 22 23 22 21 21 19 19 19 19 19 19 19 20 22 23 22 22 22 23 23 23 23 24 25 25 25 26 27 26
13 16 18 21 22 24 20 19 20 20 20 20 24 22 21 20 21 20 19 19 18 18 17 17 17 17 17 17 19 20 22 24 23 23 23 23 23 24 24 24 24 24 25 26
14 16 15 18 21 22 19 21 21 20 19 19 21 22 21 20 19 18 18 18 17 17 16 16 16 16 15 16 17 19 20 21 22 23 24 23 24 24 23 23 24 24 24 24
13 14 16 18 16 18 19 19 19 20 18 19 19 20 20 20 19 18 17 17 16 15 15 15 16 16 15 15 15 17 18 19 19 20 22 23 23 23 23 23 23 24 23 23
12 13 17 16 19 19 19 18 19 20 18 19 18 18 18 18 18 19 16 16 15 15 14 14 15 15 15 15 15 15 15 15 16 17 19 20 21 22 23 23 23 23 23 23
13 12 17 16 16 17 17 17 18 19 18 18 16 17 17 18 17 16 16 15 14 14 14 14 15 15 15 15 15 15 15 15 15 16 17 19 20 21 22 23 23 23 23 23
11 12 14 14 15 16 17 17 19 17 17 17 16 17 16 16 16 15 14 14 14 14 14 14 14 15 15 15 15 15 15 16 15 15 16 18 19 20 20 21 22 23 23 23
13 12 14 15 15 15 14 14 15 15 16 17 17 17 16 15 15 16 15 14 14 14 13 13 13 14 15 16 15 15 15 16 17 16 16 17 18 19 20 21 22 23 22 23
13 13 13 14 14 13 13 13 14 15 15 16 16 18 16 15 15 15 15 14 14 13 13 13 13 13 13 14 15 15 16 16 16 16 16 16 17 18 19 21 22 23 22 22
10 12 12 12 12 15 14 12 13 13 14 15 15 16 17 16 16 15 14 14 14 13 13 14 13 13 13 13 14 15 15 16 16 16 15 16 16 16 17 18 20 21 22 23
10 10 11 12 10 10 11 11 11 11 12 13 13 15 15 15 16 16 15 15 14 14 14 13 13 13 13 13 14 14 15 15 15 16 15 15 15 16 16 16 17 20 21 22

GFSCGP_925_temp_234.txt.gz
Temp
26 25 24 26 26 29 28 27 28 25 24 24 23 24 22 23 23 24 23 26 26 25 25 25 25 26 25 25 25 25 25 25 25 24 24 24 25 25 25 25 25 26 27 27
24 24 25 27 27 28 28 28 28 25 24 25 23 24 23 23 23 23 24 24 26 25 24 24 24 24 25 25 25 25 25 25 25 25 25 26 26 26 25 25 25 25 26 26
23 26 27 28 28 28 27 27 28 27 25 25 23 24 24 24 24 24 24 25 25 26 24 24 24 23 24 24 25 25 25 25 25 25 25 25 25 25 25 25 25 25 25 26
24 26 27 26 28 28 27 27 29 25 25 25 25 25 23 23 24 24 24 25 26 26 25 24 24 23 23 24 25 26 25 25 25 25 25 26 26 25 26 26 26 25 26 25
24 25 26 26 27 28 28 29 29 26 24 25 25 23 24 24 23 25 25 25 26 26 26 25 24 24 24 24 25 25 26 25 26 26 25 26 26 26 26 26 25 25 25 25
25 26 26 26 28 28 29 29 24 22 22 23 25 24 25 23 26 26 26 25 26 26 26 25 25 25 24 24 24 25 26 25 26 26 26 26 26 26 25 25 25 25 25 25
25 26 27 28 27 27 27 25 24 24 22 23 23 24 27 27 27 27 26 26 26 26 26 26 25 25 24 24 24 24 25 25 26 26 26 26 26 26 26 26 26 25 25 25
21 23 25 27 26 25 24 24 22 25 23 24 23 24 27 27 28 28 28 28 27 26 27 26 25 25 25 24 24 24 24 25 25 26 26 26 26 26 26 26 26 26 26 26
19 21 24 25 26 26 25 23 24 23 22 23 23 25 27 28 27 27 27 26 26 26 27 26 26 26 25 25 24 24 24 25 25 26 25 26 26 26 26 26 26 26 26 26
21 23 23 26 27 26 24 23 24 19 23 24 24 25 25 27 28 27 26 26 26 26 27 27 26 26 26 25 24 24 24 25 25 26 25 26 26 26 26 26 26 26 26 26
19 20 23 25 24 23 23 23 20 21 20 22 24 24 24 27 27 26 25 25 26 26 27 27 27 26 25 25 24 24 24 24 24 25 25 25 26 26 26 26 26 26 26 26
21 17 20 23 23 23 22 23 22 21 23 20 21 24 27 24 24 25 24 25 25 25 27 27 26 25 24 23 24 24 24 24 24 25 25 25 26 26 26 26 26 26 26 26
20 17 18 20 21 23 25 22 20 19 19 21 22 24 24 23 23 23 23 23 23 23 24 26 25 23 24 23 23 23 24 24 24 25 25 25 25 26 26 26 26 26 26 26
18 15 18 19 21 21 24 24 22 21 19 22 21 26 26 25 24 22 21 21 21 21 20 20 22 24 24 24 22 23 23 24 24 24 24 24 25 26 26 26 26 26 26 26
15 19 18 19 19 23 22 22 21 22 22 24 25 23 24 23 22 21 20 20 20 19 20 20 20 20 23 22 22 22 22 23 23 23 23 24 25 25 25 25 26 26 25 25
12 18 20 23 23 22 19 19 20 20 20 22 24 23 21 21 20 20 19 19 19 19 19 19 19 20 20 21 21 21 22 22 22 23 23 23 24 24 24 24 24 25 25 25
11 14 16 21 20 21 21 19 20 21 21 20 21 21 21 21 20 19 19 19 18 18 18 18 17 17 16 17 19 20 21 22 22 23 24 23 23 23 24 24 24 24 25 25
12 13 13 17 20 21 19 20 20 19 20 19 21 20 19 19 18 17 17 17 16 17 17 16 16 15 15 16 18 19 20 21 21 21 22 23 22 23 23 23 23 24 24 24
11 12 14 17 16 18 19 19 19 19 19 19 19 19 18 18 18 17 16 16 15 15 15 16 15 15 15 15 17 17 18 18 19 20 20 21 22 22 22 23 23 23 23 23
9 8 12 14 17 17 16 17 17 17 18 18 18 18 18 18 19 17 16 16 15 14 14 15 15 15 15 15 15 16 15 16 16 17 18 19 20 21 21 22 22 23 23 23
11 11 13 14 15 16 14 14 17 18 18 17 17 17 17 17 17 16 15 15 14 14 14 14 14 14 15 15 16 15 16 15 16 16 16 17 18 19 20 21 22 22 22 22
12 13 14 13 15 16 14 16 17 17 16 17 17 16 16 15 15 15 15 15 15 14 13 13 13 13 14 15 16 15 15 16 16 16 16 17 18 18 19 19 20 21 21 22
13 12 14 14 14 13 13 12 12 14 15 15 16 16 16 16 15 15 15 14 14 14 13 13 13 13 14 14 14 15 14 15 16 16 16 16 17 17 19 19 20 21 21 21
12 13 14 13 14 13 12 12 12 12 12 13 14 16 15 14 15 15 14 14 14 13 13 13 13 13 13 14 14 14 14 15 16 16 16 17 16 17 17 18 18 19 21 21
11 12 13 11 12 12 12 11 11 11 11 12 13 13 13 15 15 14 14 14 13 13 13 13 13 13 13 13 14 15 15 15 15 15 15 16 16 17 17 16 16 17 18 19
10 11 11 11 10 10 11 10 9 9 9 10 10 12 13 13 14 15 14 14 14 13 13 12 12 13 13 13 13 14 15 15 14 14 14 15 15 15 15 15 16 16 17 18

GFSCGP_925_temp_240.txt.gz
Temp
32 33 33 34 35 36 35 35 35 34 33 32 33 33 33 31 31 32 31 31 31 31 31 30 29 28 28 27 26 25 25 24 24 25 25 27 27 27 27 27 25 25 25 25
32 32 35 35 35 35 34 34 35 34 33 33 34 34 34 33 31 33 32 32 32 32 32 30 29 28 28 27 26 25 25 24 25 26 26 26 28 28 28 27 26 26 25 25
33 33 35 35 34 34 35 35 35 34 33 34 33 34 34 34 33 32 33 33 33 32 32 31 29 29 28 28 26 26 25 25 25 26 26 25 26 27 27 27 27 26 25 25
33 35 34 34 33 34 34 36 35 34 34 34 34 35 34 34 33 32 32 33 33 33 32 32 30 29 29 28 27 27 25 25 25 25 26 27 27 28 28 28 28 27 26 26
32 33 33 32 33 35 34 36 35 35 34 35 35 34 37 35 33 33 33 33 34 33 33 32 31 30 29 29 28 27 26 25 25 25 26 26 27 28 28 28 27 26 26 25
33 34 34 34 35 35 35 34 34 34 35 34 35 35 36 36 35 35 34 34 34 34 34 33 32 31 30 29 28 28 26 25 25 24 25 26 27 28 28 28 27 27 28 27
31 32 33 34 33 34 34 34 32 32 33 33 36 34 35 37 37 36 35 35 34 34 34 34 33 31 30 30 29 28 26 25 25 24 25 25 26 26 27 26 27 28 28 28
30 30 32 33 33 33 33 34 33 31 33 35 36 33 36 37 37 38 37 36 35 34 35 34 34 32 31 30 30 29 27 26 25 25 25 25 26 27 27 26 28 28 28 28
31 31 33 33 34 34 33 33 35 34 35 35 36 36 37 37 37 37 37 37 36 35 35 35 34 33 32 31 30 29 28 26 26 26 25 25 25 26 27 27 26 27 27 28
31 30 32 33 33 33 34 35 33 34 32 31 34 35 36 36 37 37 37 37 37 36 36 35 35 33 32 31 30 29 28 27 27 26 26 25 25 25 26 26 25 27 27 26
31 30 31 32 31 32 32 32 33 34 34 33 33 35 37 37 37 36 37 37 37 36 36 36 36 34 32 31 31 30 29 27 27 26 26 26 26 26 25 26 26 26 26 25
30 30 29 30 32 33 33 32 33 32 32 34 35 35 38 36 36 35 36 34 36 37 37 36 36 34 32 31 31 30 29 28 27 26 26 26 26 26 26 26 26 26 26 25
28 29 29 29 30 31 31 33 33 34 34 33 32 34 37 36 34 34 34 33 33 35 35 36 35 34 32 31 30 30 28 28 27 26 26 26 26 26 26 26 26 26 26 26
22 28 29 29 30 31 29 31 33 33 32 33 33 34 36 36 35 32 33 31 32 32 34 35 34 33 32 30 29 29 29 28 28 27 26 26 26 27 27 27 26 25 26 26
25 26 28 29 31 31 31 31 31 31 33 33 34 34 35 36 35 31 30 30 30 30 32 33 33 31 30 29 28 27 27 27 28 27 26 26 26 26 26 27 26 26 25 25
24 25 26 27 30 30 30 31 32 32 32 32 33 34 35 32 31 29 27 28 27 27 24 23 27 30 29 28 28 27 26 26 26 26 26 26 26 26 25 26 26 25 25 25
22 24 25 27 29 29 28 30 31 31 32 32 32 33 34 28 24 22 23 22 21 20 19 19 20 20 21 27 26 26 25 25 25 25 25 25 25 25 25 25 25 25 25 25
20 21 24 27 28 26 29 29 30 30 30 29 29 24 25 20 18 17 18 19 18 18 18 18 18 18 18 18 21 25 25 25 25 25 25 25 24 24 24 24 25 24 25 25
21 21 24 25 27 26 25 26 27 27 25 23 26 22 19 21 21 17 17 16 16 16 16 16 17 16 16 17 18 21 24 23 24 24 24 25 25 24 24 23 23 23 23 24
19 21 21 26 25 25 26 23 23 24 25 24 23 23 20 21 23 18 16 16 16 15 15 15 16 16 16 16 17 18 16 18 19 20 22 21 20 21 22 23 23 23 23 24
19 18 21 24 25 22 22 22 23 24 24 23 23 22 22 22 21 17 16 16 16 16 16 16 17 16 16 16 16 16 16 16 16 17 18 19 19 19 20 21 21 22 23 23
22 21 21 24 24 23 18 21 21 16 21 20 20 21 19 17 17 17 17 17 17 17 17 18 17 17 17 17 18 18 18 18 17 17 17 17 18 18 19 19 20 20 21 22
18 19 20 20 20 15 13 13 13 15 18 19 18 18 18 17 17 17 17 17 18 18 17 18 18 18 17 17 18 18 17 17 18 19 18 18 18 18 18 19 19 20 20 20
16 16 18 19 14 12 12 12 12 14 18 20 20 18 17 17 18 17 18 17 18 18 19 19 19 18 17 16 17 17 16 18 19 19 19 19 20 20 19 20 20 20 19 18
14 15 16 13 13 13 12 12 12 13 17 19 19 19 20 19 18 17 17 16 17 17 18 18 19 18 17 17 16 16 16 17 19 20 20 20 21 20 19 18 19 19 17 17
14 13 15 16 15 14 12 11 12 12 14 17 18 19 19 19 19 20 20 18 18 18 16 16 17 17 16 17 16 16 16 17 17 19 20 19 21 22 21 20 20 18 17 16

GFSCGP_925_temp_243.txt.gz
Temp
34 34 34 36 37 38 37 38 38 38 36 36 36 36 34 34 34 32 32 33 34 34 33 32 31 31 30 28 27 27 27 26 26 27 27 28 28 29 28 27 27 27 26 26
34 33 36 37 38 38 35 37 38 36 37 36 37 37 37 36 35 32 32 34 34 34 34 32 31 31 30 29 28 27 27 26 26 27 28 28 29 29 28 26 27 27 27 26
34 36 36 37 37 37 37 37 38 37 36 37 37 36 37 37 35 34 33 34 35 35 34 33 31 31 30 29 28 27 27 26 26 28 28 27 28 29 29 28 28 27 27 26
35 36 36 36 36 37 36 38 38 36 36 36 38 35 37 37 36 35 36 34 34 35 35 34 32 31 31 30 28 27 27 26 26 27 28 28 28 30 30 29 29 27 27 27
34 35 36 35 36 37 37 38 38 38 37 37 37 37 38 38 36 36 36 34 34 35 35 34 33 31 31 31 29 28 27 26 27 27 27 27 28 30 30 30 28 29 27 27
35 37 37 37 37 37 37 37 37 36 37 36 38 38 39 38 38 37 37 36 36 36 36 35 33 32 31 31 30 29 27 26 26 26 26 27 28 30 30 30 28 28 28 27
33 35 37 37 36 37 37 36 35 34 35 35 39 38 39 39 39 39 37 37 37 37 36 35 34 33 31 31 31 29 27 26 26 26 26 27 28 28 29 29 29 30 30 30
32 32 35 36 35 35 36 36 35 33 35 36 38 36 38 40 40 40 39 38 37 37 37 36 35 34 32 32 31 30 28 26 26 26 26 26 26 28 28 28 30 30 31 30
33 33 36 36 36 36 35 35 37 37 38 37 39 39 39 39 39 40 39 39 38 37 38 37 36 34 33 32 31 31 29 27 26 27 26 26 26 26 28 29 28 29 29 30
33 32 35 36 36 36 36 37 35 36 34 34 37 37 38 38 38 39 39 39 39 38 38 37 37 35 34 33 32 31 30 28 27 27 27 26 26 26 26 28 28 28 29 28
31 32 33 36 34 34 35 35 36 37 36 35 35 37 40 39 39 38 39 39 39 39 38 38 38 36 34 34 33 32 31 30 28 28 27 27 26 26 26 27 27 27 28 27
31 32 31 34 35 35 36 35 36 35 34 36 37 37 41 40 39 38 39 38 39 40 39 38 38 37 35 35 34 33 32 31 29 28 28 27 27 27 27 26 27 27 27 27
27 30 30 31 34 34 33 34 36 36 36 35 35 36 40 39 38 37 37 37 36 39 39 39 38 37 36 35 34 33 32 31 30 28 28 27 27 27 27 27 27 27 27 26
24 29 30 31 32 34 32 33 34 35 35 35 36 37 38 38 37 36 35 34 35 37 38 39 38 37 36 34 33 33 32 31 30 28 28 27 27 28 28 27 27 27 27 26
27 27 29 31 32 34 33 33 33 33 34 35 36 36 38 38 36 34 34 33 34 35 36 34 37 36 35 33 33 32 32 31 30 28 27 27 28 28 28 28 27 27 27 26
27 26 28 29 31 32 32 33 34 33 34 35 36 36 39 37 34 32 31 32 29 26 26 27 27 34 33 33 32 31 30 30 30 29 28 28 28 27 27 27 27 27 27 26
24 25 27 27 30 30 30 32 33 34 34 35 34 36 37 30 26 26 26 24 22 21 22 22 23 24 25 27 30 30 29 29 28 28 28 28 27 26 26 26 27 27 26 26
23 24 25 26 29 27 31 34 34 34 34 35 35 32 26 24 23 21 22 21 19 19 19 20 19 19 20 22 24 28 28 27 27 27 27 26 26 26 26 26 26 26 26 25
25 24 24 25 27 28 31 31 32 32 32 30 30 26 26 26 24 19 19 18 17 17 17 18 17 18 17 19 21 21 23 27 27 27 26 26 26 26 25 25 25 25 25 24
24 24 23 25 26 24 24 28 28 30 28 28 28 26 25 26 29 21 18 18 17 16 16 16 17 17 17 17 18 21 20 21 19 22 23 23 22 23 22 23 23 23 23 24
23 20 23 24 25 26 22 24 26 26 26 27 27 27 24 25 24 20 18 18 18 17 17 17 17 17 17 17 17 18 19 19 19 20 20 19 20 20 20 21 21 23 22 23
23 22 22 24 24 24 18 22 21 16 21 24 23 23 22 21 20 19 19 19 20 19 19 19 19 18 18 18 18 18 18 18 18 19 19 18 19 19 20 21 21 21 20 21
19 19 20 21 21 16 14 14 13 14 18 21 20 20 20 19 19 20 20 20 20 20 20 20 20 20 19 18 18 18 18 19 20 19 19 19 19 19 19 20 19 19 20 20
21 20 19 20 16 14 14 13 13 15 19 21 19 18 18 18 18 18 19 20 20 20 21 21 21 21 20 19 19 19 19 20 21 21 21 21 21 20 20 20 20 20 19 18
18 19 18 18 15 14 13 12 13 14 18 20 20 19 19 18 18 18 18 19 19 20 20 20 20 20 20 20 19 19 19 20 21 22 22 23 23 22 21 21 21 20 18 18
20 16 15 16 17 14 12 12 13 15 18 20 21 21 21 21 20 20 21 20 20 20 20 20 20 20 19 19 19 18 17 18 20 22 22 22 24 24 23 23 20 20 19 18

GFSCGP_925_temp_249.txt.gz
Temp
31 29 27 29 31 33 34 35 30 31 32 31 29 30 30 32 31 29 29 29 30 30 30 30 31 29 27 27 27 27 26 26 26 26 26 26 26 26 25 26 27 26 26 26
29 28 31 33 33 33 33 33 33 34 34 32 31 32 30 32 31 30 30 30 31 30 30 30 30 28 27 27 28 27 27 26 26 26 26 27 27 26 26 26 26 27 26 26
27 30 33 33 33 33 33 32 33 34 34 34 32 30 30 32 33 31 31 31 32 31 30 29 29 28 27 27 27 27 27 26 27 26 27 27 27 26 26 26 26 26 27 27
28 31 32 33 33 33 31 35 36 32 31 28 34 30 30 31 32 31 31 31 32 32 30 29 29 28 27 26 27 27 27 27 27 26 27 27 27 26 26 27 26 26 27 27
28 29 30 31 32 34 33 35 35 35 30 30 32 30 31 32 32 30 31 32 32 32 31 30 29 29 27 27 26 27 26 26 27 26 26 27 27 27 28 27 27 27 27 27
28 31 30 31 33 34 35 34 34 33 30 29 31 32 32 32 32 31 32 32 32 32 31 30 30 29 28 27 26 26 26 26 27 26 26 28 27 27 27 27 27 27 27 27
27 29 30 32 31 32 33 31 30 30 29 28 32 31 33 34 35 33 32 32 32 32 32 30 30 29 28 27 27 26 26 26 26 26 26 27 27 27 27 27 27 27 27 27
26 26 29 32 30 30 31 31 30 27 28 29 32 31 34 35 37 34 33 33 33 32 33 31 30 30 29 28 27 26 25 25 26 26 26 27 27 27 27 26 28 27 27 27
23 24 29 32 32 32 31 30 32 30 31 31 33 34 35 35 35 35 34 33 33 33 33 32 31 30 30 28 27 26 25 25 26 26 26 26 26 26 27 27 28 28 27 28
25 23 27 30 31 31 31 33 31 31 29 29 30 32 32 34 35 35 35 33 33 33 33 33 31 30 30 30 28 26 25 25 26 26 26 26 26 26 27 27 27 28 28 28
24 23 24 27 27 28 30 31 31 32 30 29 28 29 32 34 36 35 35 34 33 33 33 33 32 31 30 30 29 27 25 25 25 26 26 25 26 26 27 27 27 28 28 27
25 22 22 25 28 30 30 30 31 31 28 28 29 32 37 34 32 37 34 34 33 33 33 33 32 31 30 30 30 27 26 25 25 25 25 26 26 26 26 26 27 27 28 27
24 21 20 22 25 29 29 28 29 31 28 29 27 29 33 32 32 30 28 33 32 33 34 34 32 32 31 31 31 29 26 26 25 25 25 25 25 26 26 26 26 27 27 27
22 22 21 21 23 25 26 27 29 29 28 29 30 32 32 32 31 31 27 26 25 23 28 33 33 32 31 31 31 30 28 26 26 25 25 25 25 25 25 26 26 27 27 27
22 20 22 23 25 26 26 27 28 28 29 30 31 31 32 29 29 26 24 23 23 23 22 23 26 28 30 30 30 30 29 28 26 26 25 26 26 25 25 25 25 26 26 26
21 19 21 21 24 25 26 27 29 29 30 31 32 30 28 27 23 21 21 22 21 22 21 21 21 23 22 23 27 28 29 28 27 26 26 26 26 26 26 26 26 26 26 26
19 19 18 19 22 23 23 25 25 26 30 30 29 29 26 25 23 21 20 21 20 20 20 19 19 19 21 21 22 26 28 28 27 26 26 26 26 26 26 26 26 26 26 26
19 17 18 19 20 20 24 23 23 23 24 20 27 24 24 21 20 21 21 21 19 19 19 18 18 18 18 19 21 22 27 28 26 26 26 26 26 26 26 26 26 26 27 26
18 19 18 18 19 22 24 22 21 21 21 19 23 23 21 20 19 18 18 19 18 19 18 18 18 18 18 18 19 23 22 24 23 25 27 27 27 26 26 26 26 26 26 26
17 19 19 19 19 20 21 21 22 23 21 18 19 23 21 21 20 18 19 18 18 18 18 17 18 18 17 18 19 20 22 21 19 20 21 25 27 26 26 26 26 26 26 25
17 17 18 19 19 21 18 20 22 21 18 17 18 19 21 19 18 18 18 18 18 18 18 18 18 17 17 18 19 18 18 19 20 20 20 21 21 22 22 23 24 24 23 22
15 16 16 18 19 19 15 19 21 17 16 18 18 17 18 18 18 18 18 18 18 18 19 18 18 17 18 18 19 18 18 18 19 20 21 21 21 20 20 20 19 20 21 20
15 14 14 15 15 16 15 14 14 14 17 17 16 16 17 17 18 18 18 19 19 19 19 19 18 18 18 18 19 18 19 19 19 19 20 20 20 20 20 20 20 20 19 19
15 14 13 14 15 15 15 15 15 16 17 17 17 16 16 16 17 17 18 18 19 19 19 19 19 18 18 19 19 18 19 20 20 20 20 20 20 20 20 20 20 20 20 20
16 13 14 13 12 13 15 13 13 16 17 17 17 17 17 16 16 16 17 18 18 19 19 20 19 19 19 19 19 18 18 19 20 20 21 21 21 21 20 20 20 19 19 18
13 14 14 13 12 12 13 13 13 15 17 17 17 17 18 18 17 17 16 17 18 18 18 18 19 19 19 19 19 19 18 19 19 19 20 20 21 21 21 21 20 20 19 19